Location: Newark
(5.8900°S, 42.6378°W)
Time: 04:29:07
(UTC+00:00)

Vanguard 1 Rocket - Pass Details

Date: 23 October 2019
Orbit: 651 x 4225 km, 34.3° (Epoch: 12 November)

Event Time Altitude Azimuth Distance (km) Brightness Sun altitude
Rises 14:15:40 0° 323° (NW) 6,157 11.6 82.7°
Reaches altitude 10° 14:29:32 10° 6° (N) 6,484 11.8 84.3°
Maximum altitude 14:30:14 10° 8° (N) 6,535 11.8 84.3°
Drops below altitude 10° 14:30:57 10° 10° (N) 6,589 11.9 84.4°
Sets 14:49:57 0° 51° (NE) 8,440 12.3 83.3°
